Location: Unspecified
(0.0000°N, 0.0000°E)
Time: 15:09:22
(UTC+00:00)

N. Korean satellite - Pass Details

Date: 14 August 2019
Orbit: 457 x 507 km, 97.2° (Epoch: 20 August)

Event Time Altitude Azimuth Distance (km) Brightness Sun altitude
Rises 18:29:03 0° 205° (SSW) 2,532 10.4 -5.9°
Reaches altitude 10° 18:32:26 10° 240° (WSW) 1,664 10.0 -6.7°
Maximum altitude 18:33:34 11° 259° (W) 1,590 10.4 -7.0°
Drops below altitude 10° 18:34:43 10° 278° (W) 1,670 11.0 -7.3°
Sets 18:38:08 0° 313° (NW) 2,560 11.4 -8.1°
